sat.trackr.live / text

‹ back to catalog

STARLINK-4052

NORAD 53171 · 2022-083AR

PAYLOAD ACTIVE UNKNOWN

§ Identity

Operator
Country
US
Launch date
2022-07-17
Launch site
AFETR
Launch vehicle
Mass (kg)
RCS (m²)

Purposes: comms

External: N2YO · Heavens-Above · Gunter

§ Orbital elements

Epoch: 2026-09-20T04:36:57.356064Z

Period
93.79 min
Inclination
53.1613°
Eccentricity
0.0001195
Mean motion
15.35403681 rev/d
Perigee alt
458.9 km
Apogee alt
460.5 km
Semi-major
6,837.9 km
B*
1.1481e-5
RAAN
327.6354°
Arg perigee
69.8857°
Mean anomaly
290.2274°
Rev number
23,131

§ Raw data

STARLINK-40521 53171U 22083AR  26263.19233051  .00000020  00000+0  11481-4 0  99952 53171  53.1613 327.6354 0001195  69.8857 290.2274 15.35403681231319

JSON: /api/v1/satellites/53171 · /tle

For live sub-satellite position, see the globe view (requires WebGL).

§ Visibility from observer

Set your observer location to see the next 7 days of passes ≥ 10°. The values pass through the URL so the page stays shareable.

No JS? Fill the form by hand. The geolocation button needs JavaScript.